{"data":{"norad_id":59958,"intl_designator":"2024-107P","name":"STARLINK-31995","alt_names":[],"object_type":"PAYLOAD","status":"ACTIVE","operator":null,"country":"US","launch_date":"2024-06-05","launch_site_code":"AFETR","launch_vehicle":null,"mission":null,"orbit_class":"UNKNOWN","rcs_meters":null,"size_class":null,"mass_kg":null,"dimensions":null,"purposes":["comms"],"wikipedia_slug":null,"has_3d_model":false,"image_url":null,"decayed_at":null,"tle_current":{"epoch":"2026-05-25T02:02:09.223008Z","epoch_age_seconds":74680,"freshness":"FRESH","line1":"1 59958U 24107P   26145.08482897  .00004225  00000+0  15469-3 0  9994","line2":"2 59958  53.1604  70.6319 0001385 103.1300 256.9855 15.30201287110290","mean_motion":15.30201287,"eccentricity":0.0001385,"inclination_deg":53.1604,"raan_deg":70.6319,"arg_perigee_deg":103.13,"mean_anomaly_deg":256.9855,"bstar":0.00015469,"rev_number":11029,"period_min":94.105266557654,"perigee_km":474.26203794261,"apogee_km":476.16041540139,"semimajor_km":6853.348226672,"source":"CELESTRAK","updated_at":"2026-05-25T13:38:19.129241Z"}}}